Starlink 31032

operational
NORAD ID: 58535 Int'l Des: 2023-192 Owner: SPXS Country: US Constellation: starlink
LEOCIRCULAR

Über Starlink 31032

Beschreibung wird geladen...

Live-Position

3D-Globus wird geladen...

Nächste Überflüge

Höhenverlauf

Altitude vs Time

uPlot chart will show altitude changes over time

Zweizeiliger Elementsatz

1 58535U 23192E 26036.20972316 -.00001833 00000-0 -49783-4 0 9992
2 58535 53.1587 213.5276 0001082 93.2651 266.8473 15.30204027121015
Epoch: 5. Feb. 2026 • Age: 10 hours

Aktueller Status

Höhe 482.1 km
Geschwindigkeit 7.62 km/s
Subsatellitenpunkt -23.10°S, 44.05°E
Startdatum 8. Dez. 2023
Alter 2.1 years
Typ internet

Technische Details

Klassifizierung Payload
Masse 730.00 kg
Trockenmasse 700.00 kg
Gesamtmasse 730.00 kg
Länge 0.30 m
Durchmesser 4.10 m
Spannweite 29.00 m
Form Box + pan
Hersteller SPXS
Bus-Typ Starlink V2M
Phasenstatus In Orbit
Besitzer/Staat SPXS/US

Große Konstellationen

Loading constellations...